timestamp,gas_concentrations,,corrected_fluxes_and_quality_flags,,,,,,,,,,storage_terms,,,turbulence,,,footprint,,
ISOdate,CO2_1_1_1,H2O_1_1_1,Tau_1_1_1,QcTau_1_1_1,H_1_1_1,QcH_1_1_1,LE_1_1_1, QcLE_1_1_1,Fc_1_1_1, QcFc_1_1_1,E_1_1_1, QcE_1_1_1,Sa_1_1_1,Sw_1_1_1,Sc_1_1_1,ustar_1_1_1,MO_length_1_1_1,ZL_1_1_1,Fetchmax_1_1_1,Fetch70_1_1_1,Fetch90_1_1_1
yyyymmddHHMM,[µmol+1mol_a-1],[mmol+1mol_a-1],[kg+1m-1s-2],[#],[W+1m-2],[#],[W+1m-2],[#],[µmol+1s-1m-2],[#],[mmol+1s-1m-2],[#],[W+1m-2],[W+1m-2],[µmol+1s-1m-2],[m+1s-1],[m],[#],[m],[m],[m]
201407180030,386.01466900353296,13.758680238810202,0.10330422831759489,0,-56.460589490359965,0,0.22330577635789811,0,11.766595572746324,0,5.02659567891525997E-003,0,-9999.,-9999.,-9999.,0.30027542925601380,40.397008030622551,0.53469306399192573,109.82469215261544,200.79456404402811,300.82684649813496
201407180100,385.51251261884869,13.805214688892379,5.82521471038454364E-002,0,-38.379841622356160,0,-1.3143466626210072,0,7.0850421849756513,0,-2.95811585561033125E-002,0,-3.7181402612438084,1.5995524868846143,-0.38847954000391877,0.22541970149676302,25.142943917946134,0.85908794413619538,106.30172396057331,194.35345459589905,291.17689082102237
201407180130,388.73201208876242,13.877165041291398,9.35388532496055913E-002,0,-59.574173610100459,0,-2.2591111406371893,1,15.101054281713646,0,-5.08281475873627459E-002,1,-7.5065011189527304,2.4772626743322248,2.4939869498138063,0.28546280750742520,32.899604112454135,0.65654285462430007,99.829269270233695,182.51974313841131,273.44783467314625
201407180200,387.19975697960865,13.902677755482937,8.36206401796332072E-002,0,-45.685695761535491,0,-2.2126164503839001,0,10.655371614479577,0,-4.97794882006600756E-002,0,-1.2136397364485076,0.87862264971740056,-1.1871923763805829,0.26987972620852618,36.252197343628872,0.59582595215558942,101.67700715485441,185.89799729727093,278.50907500162504
201407180230,387.13744340972437,13.918385762073777,5.09841419410423449E-002,0,-27.647686175282480,0,-2.8595822255423302,1,3.7519389582449483,0,-6.43266135196287475E-002,1,-3.0473698435338474,0.54138069558574475,-4.83117114602222841E-002,0.21066504767211192,28.495544061472852,0.75801325124387042,93.300620799219502,170.58329152776332,255.56485505412897
201407180300,388.93564844953534,13.869592748119816,6.37596047122404308E-002,0,-38.605808159786946,0,-6.0959033571261889,0,9.8783522933037915,0,-0.13707994153344363,0,-8.2712470215010310,-1.6846560309738363,1.3961389504604131,0.23541486795873567,28.480575709848964,0.75841163535645917,96.569722686960290,176.56025240512454,264.51943159328789
201407180330,390.89706546187796,13.887290722481696,8.34022265187508993E-002,0,-40.461089054767577,0,-5.4198320868032983,1,11.084696797850546,0,-0.12184912489842870,1,-5.3984740559714224,0.61177660345112328,1.5243188594429913,0.26911824197609718,40.600462936367990,0.53201363821523662,96.414390954648511,176.27625645794350,264.09395391357350
201407180400,395.04411717730068,13.798892364192531,6.04885676691365309E-002,0,-26.920143543020711,0,-5.6667140965228251,0,10.010975397329345,0,-0.12736661008657316,0,-6.1144839648234344,-3.0592165703875427,3.2257429968405544,0.22908225798117485,37.636588227305658,0.57390961873449042,90.191763432427436,164.89930874206507,247.04921308387941
201407180430,392.33036742836396,13.723840538550890,5.33525876672061306E-002,0,-30.774467851524918,0,-3.7553113395319784,0,7.5785966031736383,0,-8.44061571087431212E-002,0,0.21191500674764879,-2.5976714372521186,-2.1111589546107559,0.21512750543936859,27.268325512118022,0.79212784776245171,97.915397418301239,179.02057499495876,268.20544316233452
201407180500,393.75157048506304,13.729852564591521,5.20008914935669933E-002,0,-22.945936279262622,0,-0.65506666135386382,2,5.5479193970713103,0,-1.47240079828942425E-002,2,0.67354127884286863,0.20806608037063276,1.1055467512757962,0.21239249508713756,35.195261774451197,0.61371897553777499,97.074758153583701,177.48361831091285,265.90280197945674
201407180530,396.04285217357329,13.881714974719056,0.11840490866242923,0,-34.590893423458255,0,-3.2200061254928452,2,6.3294925825345665,0,-7.23784594456737262E-002,2,0.65845143005580742,5.2557800966433872,1.7824527218840680,0.32049546085739206,80.229250025583340,0.26922849201646826,105.13199018010761,192.21480817775299,287.97280877423782
201407180600,393.00221234142009,14.106734414413154,0.10753873800542184,0,-12.246793334310476,1,11.988846779449400,0,1.0348723631384456,1,0.26960908280134005,0,11.117226542826787,7.7725027226730825,-2.3619077623252149,0.30567425533416392,196.64203464445046,0.10984426620206142,101.50891124881812,185.59066436959708,278.04863427257777
201407180630,385.97220436127020,14.368780561110409,0.16477541989247452,1,12.380989059797830,1,35.791932926555191,0,-5.7496059635220309,1,0.80549991512826014,0,17.519265605540131,9.0212223805936258,-5.4465785938019051,0.37888659453920426,-370.46741114336766,-5.83047235742983894E-002,107.81647854733602,197.12290908669831,295.32603830892236
201407180700,377.57283579122350,14.728695751561354,0.29924376770444605,0,-4.6794845640996954,2,59.854520620676439,0,-3.9042385520528673,1,1.3488632700321956,0,31.826939094666699,12.314102827464108,-6.4761993676342628,0.51186153202334606,2417.1368027118738,8.93619259603601127E-003,106.44731792991226,194.61964680666551,291.57569525932229
201407180730,373.01015376967030,14.947215516226882,0.33485077708269678,0,54.077593314535029,0,86.590772625821401,0,-8.0021189768928274,0,1.9533874139787020,0,23.908597927137276,7.4417207042001259,-3.5052549887803983,0.54246373978867224,-248.98876281155148,-8.67509029568056533E-002,108.00090412705498,197.46009786594638,295.83120854407628
201407180800,368.33462730793497,14.909662151396871,0.21867405098730075,0,46.977839171446313,1,89.277714942433803,0,-5.8069006114600255,1,2.0160165184838945,0,23.183355687642067,-1.2730689983255119,-3.5791889458554649,0.43915035242627992,-152.06927347915891,-0.14204052867366582,89.959763227623711,164.47513837501359,246.41372858007543
201407180830,364.19735244457667,14.913739459258471,0.46380909888518684,0,84.801000754512131,0,200.27415467535934,1,-7.6183469943167292,0,4.5269968550841924,1,23.072746669273446,0.13755435857253917,-3.1550083395904003,0.64079418766853502,-261.67982616676932,-8.25436194926018468E-002,116.53350848165572,213.06041996073890,319.20333379295789
201407180900,362.49304922570457,15.019048901678570,0.39559253776710251,0,137.47804030061337,0,126.11351514141583,0,-16.003858020444021,0,2.8528675327116364,0,17.715965318931502,3.5398113782801297,-1.2959243418449256,0.59266373013017093,-127.69490616359523,-0.16915318432770801,109.12756755613749,199.51999794517994,298.91731422570825
201407180930,360.71754693066794,14.845657795652803,0.60058371559495183,0,203.19869274388984,0,219.17920678588843,0,-19.077692047714770,0,4.9616517957802007,0,16.193174476802351,-5.8088901973916522,-1.3465253072414172,0.73118372061249171,-162.21618042964235,-0.13315564417057965,115.50289401451367,211.17612801717775,316.38032109855521
201407181000,360.09917825699944,13.966589982803649,0.61852288168902014,0,172.82456542306230,0,288.94543895140572,0,-14.664283632195733,0,6.5447799635413126,0,13.270733626896853,-29.372462897351060,-0.46799872745472260,0.74266523109408000,-199.82228613210378,-0.10809605083649231,104.56961742445732,191.18661142083315,286.43238267039175
201407181030,360.05162609371433,13.596013533675597,0.82070803041335316,0,187.88425564090821,0,189.42881816158049,0,-15.878714787347850,0,4.2914850745615984,0,4.3265577608540164,-12.369831744827200,-3.59598451174650210E-002,0.85576356164013068,-281.17233090739478,-7.68212146988035138E-002,110.29403711601191,201.65267632701534,302.11245506658088
201407181100,359.46092070234295,13.789264559667865,0.71018725341539024,0,175.40800481239901,0,218.56892280445990,0,-19.230152244483818,0,4.9522316909380830,0,2.6770391705555636,6.4465813071609448,-0.44646881953087869,0.79629777626694587,-242.63844117574146,-8.90213434249491481E-002,106.77324461693766,195.21554473953327,292.46845894957863
201407181130,360.98344573065259,13.236160810860959,0.95580991787319403,0,179.36947853963790,0,260.50005990356686,0,-18.341072300326829,0,5.9042606091546990,0,7.6076205520822242,-18.417975853214493,1.1490989530346907,0.92436350281161206,-371.05706542240483,-5.82120703601505113E-002,115.56086308852866,211.28211397276507,316.53910737319478
201407181200,361.40304265056955,13.094492109128582,0.88638890152681238,0,107.57071735221275,0,205.49091381126362,0,-14.739221810365343,0,4.6574275815468287,0,-0.22023673520617501,-4.7163208128052325,0.31660312981962763,0.89025111361058096,-552.59223932199131,-3.90884968390116036E-002,110.09129441010319,201.28199799914464,301.55711138499544
201407181230,361.24040781995649,13.485819316821136,0.41534082550371793,0,32.561938841880391,1,118.97068863786946,0,-8.3081942277022307,0,2.6965620509964641,0,0.88802184059787515,13.022463661914669,-0.12266964681086809,0.60955746645437947,-585.93943255762395,-3.68638784143884360E-002,100.62912615763076,183.98213662984332,275.63876660629575
201407181300,361.68711354586378,14.026701585536241,0.26955230070934966,0,-10.200505465921358,2,62.183559163954982,0,-2.7769640291880830,0,1.4078545668503846,0,-25.688415021457384,18.092054901599283,0.33828978950446276,0.49012471325712015,972.44757130453843,2.22119943916602135E-002,89.234314850940393,163.14878737254364,244.42661308557834
201407181330,358.13442558595466,14.446461814988082,0.30902860278289845,0,112.22068449858786,1,157.51472616507260,0,-15.095447265598553,0,3.5689980700845898,0,17.993356733148794,13.986775086775355,-2.6822454512827387,0.52563228276658069,-109.01700397776399,-0.19813422871541869,93.284759807208133,170.55429257576262,255.52140933973098
201407181400,359.48606995371910,14.275636668455467,1.0513026008309929,0,194.25540371300735,1,217.06107392268498,0,-18.703729901878148,0,4.9223352711198629,0,19.029717311975016,-5.6699257029679808,1.0173660688177337,0.97094757053632341,-396.91227180296761,-5.44200860857295965E-002,115.95138714480458,211.99611649889698,317.60881326563555
201407181430,358.10827555724717,14.415199885101824,0.33311468194689059,0,110.93563765151200,0,79.371861458914267,2,-5.8808456744006721,1,1.7991217396470549,2,-10.219607588002198,4.6416916801115322,-1.0386846627003301,0.54613256282421274,-123.68298802948767,-0.17464002401729067,84.715341253000190,154.88666238280138,232.04844429465126
201407181500,358.75164880554001,14.169006780375687,0.66679096546525030,0,39.339038613304922,0,158.72400982712355,0,-11.885112957121878,0,3.5981275431221529,0,2.0899264085067757,-8.1839221326523486,0.48482223511859790,0.77279730760743248,-988.13018418423815,-2.18594678572966786E-002,102.60238048386186,187.58987487538258,281.04381591409629
201407181530,357.08062598260796,14.384553324714139,0.40080533184162009,0,37.826641664193318,0,199.10786514031585,0,-16.598307011198884,0,4.5136448956623285,0,0.26393059819483095,7.1631937448210392,-1.2588876920537586,0.59925649376986068,-479.10218488467933,-4.50843278980227469E-002,101.13832705614446,184.91311827362341,277.03354675574542
201407181600,362.03955660474287,13.523587821826714,0.58332399355353093,0,27.964115535323497,0,116.88870033470840,0,-8.8791186822882526,0,2.6505173398317590,0,6.2243030364973713,-28.574405772866413,3.7319654067729777,0.72319825531052928,-1138.8615484284644,-1.89663089686417374E-002,101.73913144305405,186.01158030962537,278.67924305166673
201407181630,361.68448766794910,13.902460230036768,0.45557088721546540,0,3.5327371166526662,1,171.60771984314007,0,-11.154944953561150,0,3.8905233862779789,0,-4.5430087511303325,12.584205002698434,-0.26737247434094485,0.63897590717543928,-6217.7372150365500,-3.47393259846428366E-003,105.10218201984952,192.16030935397609,287.89115960523407
201407181700,363.06331099704607,13.735628181176189,0.49437781443607004,0,7.2616736288588042,1,140.83603271584636,0,-8.2695933338829111,0,3.1929079169361430,0,7.32624397837694646E-002,-5.5405468271538449,1.0381363076467451,0.66565829274242705,-3419.4574621878287,-6.31679154920089091E-003,99.987635534068417,182.80928717703046,273.88162440482961
201407181730,364.32196291092538,13.639095024242181,0.37681415610812452,0,-12.041561275666698,0,94.328299379472995,0,-5.5570145821932018,0,2.1372689210786207,0,-13.381366992228592,-3.2140383640448826,0.94950521313314440,0.58056990532647035,1367.9564188772581,1.57899767141178871E-002,103.73523224484452,189.66108919899682,284.14687239553581
201407181800,363.28072779521057,13.998152074285711,0.44147064158435934,0,-9.0782421370040680,2,79.421189564149145,0,-4.0892678980616015,1,1.7995906403891428,0,1.0566740364761762,11.949661716915593,-0.78519639496690830,0.62856844750583007,2302.5502185829960,9.38090289005413282E-003,104.57314258321816,191.19305653533968,286.44203862637619
201407181830,364.72808573953449,14.102927452933152,0.37156165333205415,0,-41.272838282642141,0,47.593705362063901,0,2.3466776939622478,0,1.0778040455814579,0,-12.970375463215175,3.4960060702147295,1.0936520717359177,0.57608807479480784,389.90754321509820,5.53977484556743907E-002,98.118925411870890,179.39268907912833,268.76293786848464
201407181900,364.91606817099256,14.460710840707442,0.25150228637214367,0,-48.901569267591135,0,37.834430648359181,0,3.4969772192797199,0,0.85652993680357015,0,-7.0958792435830933,11.954186124110830,0.14219111112861688,0.47374863371153975,183.01529850391691,0.11802292036005786,104.33550550845351,190.75858017221219,285.79111386245199
201407181930,366.05125583770092,14.874353142117748,0.12364213071789934,0,-48.568175785632519,0,11.667513245474114,0,2.9007687251898120,0,0.26395142610292049,0,-16.330163668525348,13.864073397470431,0.86075445150576713,0.33179220717565305,63.301094736779874,0.34122632617678472,101.13105464132634,184.89982197991813,277.01362648487299
201407182000,368.34119147053445,14.952229586507466,0.10447122828135284,0,-39.818065293449067,0,9.1057703860216872,0,4.7544860373119748,0,0.20584318822037107,0,-17.243787312044208,2.6186701168794100,1.7406752635768810,0.30461149465911913,59.740854086133361,0.36156162027508820,100.32222315448413,183.42102005839877,274.79811173344518
201407182030,369.86292383543781,15.024003114759205,0.14425046419182316,0,-52.782628645409986,0,6.9200485507037461,0,7.8570605601767767,0,0.15633645835767090,0,-14.259302410626509,2.4206769154447207,1.1594764656320624,0.35751797752785780,72.873356283113054,0.29640462717380522,104.49134133237364,191.04349775962507,286.21797232717853
201407182100,371.81203960730824,15.238411897241685,0.11044257954438255,0,-51.548804187444361,0,5.1694788041289845,0,9.1495495283460055,0,0.11672960779195080,0,-11.536754762303318,7.2479259066063992,1.4877949402100075,0.31256069348735521,49.861954505198696,0.43319601516518869,104.36817575855424,190.81831180903819,285.88060273894666
201407182130,373.80931789582542,15.463168715602729,0.17185982130908478,0,-58.247191077270585,0,-3.0302071125577852,1,10.537530539346836,0,-6.83831254728370919E-002,1,-13.740903565931678,7.6173085816400725,1.5275797341210950,0.38953088600764851,85.409232585293026,0.25290005946873939,112.86651200450046,206.35598087195751,309.15886232920508
201407182200,376.10533960749910,15.779825185685507,0.17618123174097985,0,-66.316984008989223,0,-6.3553102280883973,2,13.479509641068120,0,-0.14336023373243276,2,-9.8716313858767837,10.753723341078889,1.7588889842035218,0.39410516911871885,77.698427801357667,0.27799790306210770,106.39933156320440,194.53191242385685,291.44425316657714
201407182230,377.29862212281745,15.965028277605805,0.19133762835419824,0,-49.028235163120627,0,-0.63431419395630073,0,11.611684699647084,0,-1.43052809540222675E-002,0,-5.3504605668179188,6.2961881788710699,0.91488120560394182,0.41055212753401421,118.81520943508480,0.18179490742556201,104.24141576754251,190.58655411744311,285.53338748515648
201407182300,378.40938476794906,16.091135017926561,0.19887221771622421,0,-45.797650297003393,0,-5.6624298537927116,1,8.8177438616664343,0,-0.12768192127567632,1,-3.5016977460679559,4.2900133608898381,0.85205608999873805,0.41845893450115329,134.68855896225224,0.16036996881118618,103.96460125229767,190.08044889811407,284.77514964215584
201407182330,379.95515190695329,16.127652852908657,0.28415274801286006,0,-54.961997450898316,0,1.5331149354961315,0,13.429184923188972,0,3.45616758480933942E-002,0,-5.7093795358798030,1.2437150725477986,1.1868067956813553,0.49997721839696513,191.42965983760303,0.11283517934641943,109.39401883711710,200.00715586708813,299.64716556452282
201407190000,380.64976408228426,16.017484538467599,0.19697976887204163,0,-41.184669436620972,0,9.1806169866747318,0,9.6811340982661509,0,0.20700475439325350,0,4.7343831643949015,-3.7486032043582758,0.53292195187025415,0.41642171087605023,147.59803078104076,0.14634341586876076,104.36605479816438,190.81443401699991,285.87479309984707
